TimeCDT,TemperatureF,Dew PointF,Humidity,Sea Level PressureIn,VisibilityMPH,Wind Direction,Wind SpeedMPH,Gust SpeedMPH,PrecipitationIn,Events,Conditions,WindDirDegrees,DateUTC
12:53 AM,52.0,48.9,89,29.99,10.0,ENE,3.5,-,N/A,,Clear,60,2013-09-26 05:53:00
1:53 AM,52.0,48.9,89,29.99,10.0,Calm,Calm,-,N/A,,Clear,0,2013-09-26 06:53:00
2:53 AM,52.0,48.9,89,29.99,9.0,East,3.5,-,N/A,,Clear,100,2013-09-26 07:53:00
3:53 AM,51.1,48.9,92,30.00,8.0,Calm,Calm,-,N/A,,Clear,0,2013-09-26 08:53:00
4:53 AM,51.1,48.9,92,30.01,7.0,ENE,3.5,-,N/A,,Clear,70,2013-09-26 09:53:00
5:53 AM,50.0,50.0,100,30.02,6.0,NE,3.5,-,N/A,,Clear,50,2013-09-26 10:53:00
6:53 AM,50.0,48.9,96,30.02,3.0,Calm,Calm,-,N/A,,Clear,0,2013-09-26 11:53:00
7:53 AM,54.0,53.1,97,30.03,4.0,East,5.8,-,N/A,,Clear,100,2013-09-26 12:53:00
8:53 AM,57.9,54.0,87,30.04,6.0,SE,5.8,-,N/A,,Clear,130,2013-09-26 13:53:00
9:53 AM,62.1,54.0,75,30.05,10.0,SE,8.1,-,N/A,,Clear,140,2013-09-26 14:53:00
10:53 AM,66.9,55.0,66,30.04,10.0,SSE,8.1,-,N/A,,Clear,150,2013-09-26 15:53:00
11:53 AM,71.1,55.9,59,30.04,10.0,SSE,10.4,-,N/A,,Clear,150,2013-09-26 16:53:00
12:53 PM,73.9,57.0,55,30.03,10.0,ESE,10.4,-,N/A,,Clear,120,2013-09-26 17:53:00
1:53 PM,75.9,57.9,54,30.01,10.0,SE,13.8,-,N/A,,Clear,140,2013-09-26 18:53:00
2:53 PM,77.0,59.0,54,30.00,10.0,SSE,9.2,19.6,N/A,,Clear,150,2013-09-26 19:53:00
3:53 PM,78.1,59.0,52,29.99,10.0,SSE,9.2,-,N/A,,Clear,150,2013-09-26 20:53:00
4:53 PM,77.0,57.9,52,29.99,10.0,SSE,12.7,18.4,N/A,,Clear,150,2013-09-26 21:53:00
5:53 PM,75.0,59.0,57,29.99,10.0,ESE,9.2,-,N/A,,Clear,120,2013-09-26 22:53:00
6:53 PM,71.1,57.9,63,30.00,10.0,ESE,8.1,-,N/A,,Clear,120,2013-09-26 23:53:00
7:53 PM,68.0,57.0,68,30.01,10.0,ESE,8.1,-,N/A,,Clear,120,2013-09-27 00:53:00
8:53 PM,66.9,55.9,68,30.02,10.0,SE,9.2,-,N/A,,Clear,130,2013-09-27 01:53:00
9:53 PM,64.9,55.0,70,30.02,10.0,SE,11.5,-,N/A,,Clear,140,2013-09-27 02:53:00
10:53 PM,64.0,53.1,67,30.03,10.0,SE,10.4,-,N/A,,Clear,140,2013-09-27 03:53:00
11:53 PM,63.0,51.1,65,30.04,10.0,SSE,11.5,-,N/A,,Clear,150,2013-09-27 04:53:00